ECMWFNIL_sfc_temp_000.txt.gz
Temp
66 66 65 65 65 67 65 65 65 65 65 65 64 65 65 65 65 65 64 64 63 62 62 63 63 63 64 64 64 65 65 64 65 66 67 66 66 66 67 66 65 66
66 66 66 66 65 66 66 65 65 65 64 64 65 65 65 65 66 65 64 63 62 62 63 62 62 62 62 63 63 62 62 63 63 67 65 66 66 66 66 66 66 66
65 65 65 64 64 64 64 65 65 64 64 64 65 65 65 66 64 64 64 63 61 61 61 61 61 61 61 61 62 62 63 63 63 65 65 65 65 66 66 66 67 66
65 65 64 64 65 64 64 64 63 63 63 63 63 64 64 65 64 63 62 63 61 61 61 61 60 61 61 61 61 60 61 61 63 64 63 64 64 65 66 67 67 67
64 64 64 64 64 64 64 63 62 63 63 63 64 64 63 63 62 61 61 61 60 60 60 60 60 60 60 60 60 59 59 59 61 62 62 62 64 65 65 66 66 66
65 65 65 65 64 63 63 62 63 63 63 62 62 63 62 62 61 61 60 59 60 59 59 59 59 60 59 59 59 59 59 59 60 60 60 61 62 64 66 66 66 66
64 64 64 64 64 63 62 62 62 62 62 62 63 61 62 61 60 60 60 60 59 59 59 58 58 57 58 58 57 57 58 59 59 59 59 60 61 61 63 64 65 65
64 64 64 64 63 62 62 62 62 61 61 62 60 60 61 60 61 60 60 60 59 58 58 58 58 58 58 58 57 56 56 57 57 58 57 58 58 59 60 61 61 62
64 64 64 63 62 62 62 62 62 62 62 61 60 60 61 61 60 60 60 59 59 58 58 58 58 58 58 57 56 55 55 55 56 56 56 55 56 57 58 60 59 60
64 64 63 62 62 61 62 62 62 62 62 61 61 61 61 60 60 60 60 59 59 58 58 58 58 58 58 57 56 55 55 54 55 55 55 55 55 56 56 57 58 58
63 63 62 62 61 61 61 62 62 62 61 62 61 60 61 59 60 60 59 59 58 58 58 57 57 57 56 56 55 55 55 54 54 54 54 54 55 56 56 56 56 57
63 63 62 62 62 61 62 62 62 62 61 61 61 60 60 59 58 59 59 58 58 58 57 56 56 56 55 55 55 55 54 53 53 53 54 54 54 55 55 56 55 56
63 63 62 62 61 62 62 62 62 61 61 61 61 60 59 58 58 58 57 57 57 57 56 56 55 55 54 54 54 54 53 53 53 53 53 53 54 55 55 55 56 56
63 63 63 62 62 62 62 61 61 60 60 60 60 58 57 57 57 57 57 57 56 56 56 56 55 55 55 54 54 54 53 53 53 52 52 53 53 54 55 55 56 56
63 64 63 62 62 62 61 60 60 60 60 59 58 57 57 57 57 57 56 56 57 56 56 56 55 55 55 55 54 54 54 53 53 53 53 53 53 53 54 55 56 56
64 63 63 62 61 60 60 60 60 59 58 57 57 57 57 57 57 56 56 55 54 55 54 54 54 54 53 49 49 53 53 53 53 52 53 52 52 53 54 55 55 56
63 63 62 61 60 60 59 60 60 59 57 57 56 56 56 56 56 55 55 54 54 53 53 53 54 54 49 45 44 45 49 51 51 51 51 51 51 51 50 52 54 56
63 63 62 61 61 60 60 60 59 58 57 56 56 55 55 55 54 54 54 54 53 53 52 52 53 50 45 45 44 44 45 50 51 51 51 51 51 51 52 52 52 53
63 62 62 61 60 60 59 58 58 57 56 56 55 55 55 54 53 53 52 52 52 51 51 51 52 48 45 45 44 43 42 44 48 50 50 50 51 51 51 51 52 52
63 62 61 60 60 59 58 58 57 56 55 55 55 55 54 53 52 52 52 52 52 51 51 51 51 48 45 44 44 43 43 43 47 47 48 49 50 50 51 51 51 51
63 62 60 60 59 58 57 57 56 54 55 55 54 53 51 50 50 50 51 51 51 51 51 50 50 46 44 43 43 42 42 43 48 47 47 48 48 49 49 50 51 51
62 60 60 59 59 58 57 56 55 54 54 55 54 53 52 51 51 52 51 51 51 51 50 49 50 45 43 43 42 42 42 45 46 46 46 47 47 48 48 49 50 50
62 61 59 59 58 57 56 55 54 54 54 54 53 52 51 51 50 50 51 51 50 50 49 49 49 47 44 43 42 42 42 46 45 45 46 46 46 48 49 49 49 49
61 61 59 58 57 57 56 55 55 54 54 53 51 50 50 50 50 51 51 51 50 49 49 48 48 47 44 43 42 42 43 45 45 44 44 45 45 46 48 48 49 49
62 61 60 58 57 56 56 54 53 53 53 52 51 50 50 51 51 50 50 50 50 49 49 47 47 47 45 43 42 42 43 45 44 43 42 43 44 44 46 47 48 48
60 59 58 57 57 56 55 54 54 53 52 51 50 51 50 50 50 49 48 48 49 48 48 47 46 47 46 43 43 42 42 44 44 43 41 42 43 43 43 45 46 47

ECMWFNIL_sfc_temp_003.txt.gz
Temp
58 58 58 57 56 58 58 57 57 57 57 54 54 55 54 56 56 55 55 56 56 57 57 56 56 55 57 55 55 57 58 58 58 58 59 59 59 59 60 61 61 61
58 59 59 58 57 57 57 56 56 56 55 54 54 54 55 55 56 55 55 55 56 56 56 55 55 56 55 55 55 55 55 56 56 60 59 59 59 59 59 59 59 61
58 58 58 57 57 55 56 56 56 54 54 55 55 54 56 55 55 54 54 54 55 55 55 55 55 55 55 54 54 54 55 54 55 56 57 57 58 58 58 59 59 59
57 58 58 57 57 56 56 56 54 54 54 55 55 55 56 57 54 54 55 59 54 54 54 54 54 54 54 54 54 53 53 54 55 55 55 56 57 58 58 59 59 60
58 57 57 57 56 56 56 56 55 53 54 54 54 54 54 54 54 54 54 54 54 53 53 54 53 53 53 52 52 51 52 52 53 54 53 54 55 56 57 58 58 59
57 57 57 57 55 56 56 55 55 54 53 53 54 54 53 54 54 54 54 54 53 53 53 53 52 52 52 52 51 51 51 52 52 53 53 53 54 56 57 57 57 57
57 57 57 56 55 55 55 54 54 55 53 53 53 54 53 54 54 53 53 53 53 53 53 52 52 51 51 51 51 50 50 51 51 53 53 53 53 53 55 55 56 56
57 57 57 56 55 54 55 54 54 53 52 53 52 52 53 52 52 52 53 52 51 51 51 51 51 51 51 50 51 50 49 52 51 51 51 52 52 52 53 54 54 53
57 57 56 55 55 54 54 54 53 53 53 53 52 51 52 52 52 51 52 51 51 50 50 50 50 50 50 50 50 49 49 49 51 50 51 51 52 52 53 53 52 52
57 56 56 55 55 54 54 53 53 53 53 53 53 52 52 52 51 51 51 51 51 50 50 49 50 50 50 50 50 49 49 50 50 50 51 51 52 53 54 53 53 52
56 56 55 54 54 53 54 53 53 53 52 53 52 52 51 51 52 52 52 51 51 50 50 49 50 49 49 49 49 49 50 50 50 51 51 52 53 53 54 54 53 53
56 55 55 54 54 54 54 54 54 53 52 52 52 51 51 51 50 51 52 51 50 50 49 49 49 49 49 48 48 49 50 50 51 52 52 53 53 53 53 54 53 53
56 56 55 55 54 54 54 53 53 53 52 52 52 51 50 50 50 50 50 51 49 49 49 49 49 49 48 49 50 50 50 51 52 52 52 52 52 53 53 53 53 54
56 55 55 55 54 54 54 53 52 51 51 51 51 49 49 49 50 51 49 49 48 48 48 48 48 47 48 48 49 49 50 52 52 52 52 52 52 53 53 53 53 53
55 55 55 55 54 54 53 52 52 50 50 50 49 49 50 50 50 50 49 48 48 48 48 48 49 49 49 49 48 48 50 51 52 52 52 52 52 52 53 53 53 53
56 55 55 54 54 53 52 51 50 50 49 48 49 49 49 49 49 48 48 47 47 46 46 47 48 48 50 47 46 48 48 50 50 51 52 52 51 51 52 52 53 53
55 55 54 53 52 52 50 51 50 50 48 48 48 48 48 47 48 46 46 47 47 46 45 46 47 49 47 44 44 44 46 47 47 47 48 49 49 49 49 50 51 52
54 54 53 52 52 51 50 50 49 48 48 47 47 47 47 47 46 45 46 46 47 46 45 45 46 47 45 44 44 44 45 46 45 45 45 46 46 47 48 49 50 51
54 53 52 51 51 50 50 49 48 47 46 46 46 45 46 46 45 45 45 45 45 44 43 45 45 46 44 44 43 43 43 44 46 46 45 45 45 45 46 47 48 49
54 53 51 50 50 49 48 47 47 45 45 45 45 46 43 43 44 45 44 43 43 43 44 44 45 46 44 44 43 42 42 42 44 45 45 45 45 45 45 46 46 47
53 52 50 49 49 48 46 45 46 44 46 45 45 43 42 43 42 43 42 43 42 43 43 44 46 45 43 43 42 42 41 41 42 43 44 44 45 45 45 46 46 46
53 51 50 48 47 46 46 45 44 44 44 44 43 42 42 42 41 42 41 40 41 42 42 43 44 43 42 42 41 41 41 43 43 43 43 44 44 45 45 46 47 47
53 51 50 48 47 45 44 44 44 44 44 43 41 40 41 42 42 41 41 41 41 41 41 42 42 43 42 42 41 41 41 43 43 43 44 44 45 45 46 46 46 46
52 51 49 47 45 45 44 44 43 42 42 42 41 40 40 41 41 40 40 40 41 42 43 43 43 44 43 42 41 41 42 42 42 42 42 42 43 44 45 45 46 47
52 49 47 46 46 45 44 43 42 44 41 41 40 39 41 40 41 39 38 40 41 42 46 45 43 44 43 42 42 42 43 42 41 41 41 42 42 42 43 43 44 45
51 49 46 46 45 44 44 43 42 42 40 40 39 40 41 39 40 39 38 38 40 41 43 43 43 43 44 42 42 42 42 42 42 41 40 41 42 42 41 42 43 44

ECMWFNIL_sfc_temp_006.txt.gz
Temp
57 57 57 56 56 57 56 55 54 55 55 54 53 54 53 55 54 53 53 52 52 51 53 52 52 52 54 53 52 53 53 53 53 54 54 54 53 53 55 55 55 56
56 57 57 56 55 56 56 56 55 56 54 53 54 53 53 54 53 53 53 53 53 51 51 51 52 54 53 52 52 52 52 51 51 55 53 52 53 53 53 53 54 55
55 56 56 56 55 55 55 55 55 55 54 54 53 54 54 54 53 51 52 51 51 51 51 51 51 52 52 51 51 50 50 50 50 51 52 51 52 52 53 53 53 54
56 57 57 56 55 55 55 54 53 54 53 53 54 55 55 55 53 52 52 55 51 51 50 51 51 51 52 51 50 50 49 49 50 50 50 50 51 52 52 52 53 53
56 56 56 56 55 55 55 55 54 54 54 54 53 53 54 53 52 52 51 51 49 49 49 50 49 49 49 49 50 49 49 50 49 49 49 49 50 50 52 52 51 52
56 57 56 56 55 54 54 55 55 54 53 52 52 53 52 52 52 51 51 49 49 49 49 48 48 49 49 50 48 48 48 49 48 49 49 48 49 50 52 51 51 51
56 55 55 55 54 54 54 54 54 54 53 53 51 52 51 51 50 49 49 49 48 49 48 47 48 48 47 48 48 48 48 48 47 48 48 48 48 49 50 51 51 51
56 55 55 54 54 53 54 53 53 52 52 51 52 51 51 50 49 48 48 48 48 48 47 47 48 48 47 48 47 47 46 48 48 47 46 47 47 48 48 50 50 50
56 55 54 53 53 52 53 53 52 51 52 52 51 50 49 49 49 48 49 47 48 48 47 47 47 47 47 47 47 46 46 46 47 46 46 47 47 47 48 48 48 49
56 55 54 53 53 52 52 52 52 51 52 52 51 49 50 49 48 48 48 47 48 47 46 47 46 46 47 47 47 47 46 46 45 45 46 47 47 47 47 48 49 49
55 54 54 53 53 52 52 52 51 51 51 51 50 49 49 48 49 47 46 46 48 46 46 45 46 46 46 46 45 46 46 46 46 45 46 47 47 48 51 51 51 51
55 54 54 53 53 52 52 52 52 51 50 50 50 49 47 47 47 47 48 45 45 45 46 47 46 46 46 45 45 45 46 46 47 47 47 48 49 50 51 52 52 52
54 54 54 53 52 52 52 51 51 50 50 50 49 49 48 46 46 46 47 45 45 45 45 46 46 46 46 45 45 44 45 45 46 46 47 48 50 52 52 52 52 52
54 53 53 52 52 52 52 51 51 49 49 48 49 47 47 47 46 46 46 45 44 45 46 45 45 45 44 44 44 44 44 44 44 45 46 47 49 51 52 52 52 53
53 53 52 52 52 51 51 50 50 49 48 48 47 46 48 46 45 45 44 45 44 45 44 45 45 45 45 45 44 44 43 44 44 45 45 46 46 47 49 50 51 52
53 53 52 52 51 51 50 49 49 48 48 46 46 46 46 45 44 45 45 45 45 44 44 45 45 45 47 47 46 45 44 45 44 44 44 44 45 45 45 46 47 48
53 52 52 52 51 50 48 49 48 48 47 46 45 45 45 46 45 45 43 43 43 43 43 42 43 46 46 43 43 44 45 44 44 44 44 43 43 43 43 44 45 46
52 52 52 50 51 50 49 49 48 46 45 44 44 44 45 44 44 43 41 42 42 42 42 42 43 46 43 43 43 43 44 45 44 43 44 43 43 43 43 44 44 44
52 51 51 50 51 50 49 48 46 45 43 43 44 43 43 44 41 41 43 42 42 42 41 42 42 44 43 43 43 42 42 43 43 42 42 42 42 42 42 43 43 44
52 51 50 50 50 50 49 47 45 44 42 42 42 41 39 39 40 42 41 40 40 41 40 40 41 43 42 42 42 42 41 41 41 41 41 41 42 42 43 43 43 43
51 51 50 49 50 49 47 45 44 41 42 40 40 40 41 40 39 41 40 41 40 39 39 39 42 43 41 41 41 41 41 40 40 41 41 41 42 42 42 42 42 43
51 49 49 49 49 47 46 44 43 43 41 41 40 38 37 38 38 39 39 38 37 37 37 38 40 41 41 41 41 40 41 41 40 40 40 40 41 41 42 42 42 43
50 50 49 49 48 47 46 44 42 41 41 41 40 39 38 38 39 37 37 36 37 38 37 38 39 41 41 41 41 40 40 40 40 40 40 40 40 41 41 42 42 43
50 50 50 48 47 45 42 41 42 42 42 41 40 39 38 38 37 36 35 36 38 37 37 39 40 42 42 41 41 40 41 40 40 40 39 39 39 40 41 41 42 45
51 51 50 47 45 44 45 44 43 43 41 39 39 38 38 37 38 35 35 34 34 37 44 42 40 42 42 41 41 40 41 41 40 39 38 38 38 39 40 40 41 43
50 49 48 48 46 45 45 44 42 40 39 39 38 38 39 35 37 34 34 34 35 37 39 39 39 40 41 41 41 41 41 41 40 38 37 37 38 38 38 39 40 40

ECMWFNIL_sfc_temp_009.txt.gz
Temp
57 56 56 55 55 55 54 53 52 53 53 51 51 52 52 52 51 50 50 49 50 49 50 49 50 50 52 49 49 50 51 50 50 50 49 50 49 49 51 50 50 51
56 57 57 56 55 55 54 54 53 54 53 52 53 52 51 51 51 51 50 51 51 49 49 49 49 49 48 49 48 50 48 48 48 51 49 48 48 48 48 48 49 50
55 55 55 55 55 54 54 53 53 53 53 52 51 51 52 51 51 49 49 49 49 49 48 48 48 49 48 48 48 48 48 48 48 48 49 48 48 48 48 49 49 49
55 56 56 56 56 55 53 53 52 53 51 52 51 52 53 54 50 49 50 52 48 48 47 48 47 48 47 47 48 47 46 48 48 47 48 48 49 49 48 49 49 49
55 55 55 56 55 55 54 54 53 52 52 52 50 51 53 51 50 49 49 48 47 46 47 47 47 48 47 47 47 48 48 49 48 47 47 47 47 48 49 49 47 47
55 55 55 55 54 54 53 54 54 53 52 50 51 52 51 51 50 50 49 47 47 47 46 46 47 47 46 47 46 47 46 47 47 46 47 46 47 47 49 48 47 46
55 54 54 54 53 54 54 53 53 53 52 53 51 50 50 50 49 48 47 47 47 48 46 47 47 47 45 45 45 45 45 45 45 46 46 46 47 47 47 47 47 47
55 55 54 53 53 52 53 53 52 53 52 51 52 50 50 50 48 47 46 46 46 47 47 46 46 45 45 46 46 44 43 45 45 44 44 45 45 46 46 47 47 46
55 54 53 53 53 52 52 52 52 51 52 52 51 49 49 50 48 48 47 46 46 46 45 45 46 46 45 45 45 45 44 43 45 44 44 45 44 45 45 46 45 46
53 53 53 53 52 51 51 51 51 51 51 52 51 49 49 48 48 48 47 46 46 44 43 44 45 45 45 44 45 45 43 44 43 43 44 44 45 45 45 45 45 45
51 51 52 52 52 50 50 50 50 50 50 51 49 49 48 48 47 46 46 45 46 45 44 44 44 43 44 43 43 43 43 44 43 43 43 44 44 45 47 46 46 47
52 51 51 50 51 50 50 50 50 50 50 49 50 49 46 47 47 46 47 45 45 44 44 43 42 42 43 43 43 42 42 42 43 43 44 44 44 45 45 46 46 48
53 52 51 51 51 51 51 50 50 50 50 49 49 48 47 45 44 46 45 46 45 44 44 44 43 42 42 41 42 42 42 42 43 43 43 43 44 45 45 45 47 48
54 53 53 53 52 52 52 51 50 49 49 48 48 47 46 46 46 46 45 45 45 44 44 43 42 42 41 41 41 42 42 43 43 43 43 43 43 44 45 45 45 46
52 52 51 52 52 52 52 52 51 50 48 48 47 47 47 46 46 45 45 43 42 43 43 43 43 43 43 43 42 42 41 42 43 43 43 43 43 43 43 44 44 45
51 51 52 51 51 51 52 52 51 50 49 48 46 46 46 45 45 44 44 43 42 41 40 42 42 42 46 46 45 44 43 43 43 43 42 42 42 42 42 42 43 43
51 51 51 51 51 51 51 51 50 49 48 47 46 46 46 46 44 43 41 41 42 41 41 41 42 44 45 42 41 43 43 42 41 41 41 41 41 41 41 42 42 42
51 51 51 51 51 51 50 51 50 49 48 47 46 46 45 44 42 41 41 41 41 39 39 41 42 45 42 41 41 41 43 43 41 41 41 41 41 40 41 41 41 41
50 50 50 49 50 50 49 49 48 48 46 46 47 47 44 42 41 42 42 40 41 39 39 40 40 43 41 41 41 41 41 42 41 40 40 40 40 40 40 40 40 41
51 51 51 50 50 49 49 48 48 47 46 47 46 43 42 42 41 42 41 40 38 38 38 38 37 42 41 41 41 41 40 41 40 40 39 39 40 40 40 40 40 41
51 50 49 50 50 49 49 48 47 45 45 45 44 43 42 42 42 42 40 39 39 37 36 37 39 41 40 41 41 41 40 40 39 39 39 39 39 39 40 40 40 40
48 46 46 46 47 47 47 46 45 44 43 42 41 40 41 41 40 41 40 39 38 35 36 35 36 39 40 40 40 40 40 40 38 38 38 38 38 39 39 40 40 40
47 47 46 46 46 46 44 44 44 42 41 42 42 41 41 41 40 39 40 39 37 35 34 34 34 39 40 40 40 40 40 38 37 37 37 37 38 39 39 39 40 40
49 49 49 48 48 46 44 43 42 42 42 43 43 40 39 40 39 39 38 38 37 35 35 34 34 38 40 40 40 40 40 38 37 37 36 37 37 38 38 38 39 43
49 49 49 47 46 44 43 43 43 43 42 41 42 41 41 38 40 39 37 35 36 36 41 39 34 37 40 39 40 40 40 38 37 36 36 36 36 36 37 38 38 41
49 49 47 46 45 44 44 44 43 42 41 41 40 39 38 36 39 37 37 37 36 37 37 36 35 34 36 39 40 40 40 40 38 36 35 36 36 37 37 39 40 40

ECMWFNIL_sfc_temp_012.txt.gz
Temp
54 54 54 54 53 54 53 52 51 53 52 51 53 52 53 53 52 52 51 51 52 51 51 51 51 52 52 51 51 52 52 51 51 50 50 51 50 51 51 51 51 51
54 54 56 55 54 54 53 53 53 53 53 52 53 52 51 52 51 52 51 51 52 50 50 50 51 51 50 51 51 51 50 50 50 52 50 50 50 50 50 50 50 50
54 53 54 54 54 53 53 52 53 53 53 53 51 51 52 52 52 50 51 51 51 50 50 50 50 50 50 50 50 50 50 49 49 49 51 50 49 50 50 50 50 50
54 55 55 55 54 53 52 52 51 52 51 51 51 52 53 53 52 51 51 53 50 50 49 50 50 50 50 49 49 49 49 49 48 49 49 49 50 50 50 51 51 50
54 54 54 55 54 54 52 52 52 52 52 52 51 50 52 52 50 51 51 49 50 49 49 49 49 49 49 48 48 48 49 48 48 48 48 49 49 50 50 50 49 49
53 54 54 54 54 53 52 53 53 52 52 50 51 52 51 52 51 51 51 50 49 50 49 49 48 47 47 47 47 47 48 48 47 47 48 48 48 48 49 49 48 48
55 54 53 53 53 53 54 53 53 53 52 53 51 51 51 51 51 51 50 50 49 50 50 49 47 46 47 48 48 47 47 47 47 47 48 47 48 47 48 48 48 48
55 54 54 53 53 52 53 53 52 52 52 51 52 51 51 51 51 50 50 49 49 48 47 47 47 47 47 48 48 47 47 48 47 47 47 47 46 47 47 48 47 47
54 54 53 53 53 52 52 52 52 51 52 52 52 50 50 51 50 50 49 49 48 46 46 47 47 47 47 48 46 46 47 46 46 46 46 46 46 46 46 47 46 47
55 54 53 53 53 53 53 52 52 51 52 52 52 50 51 50 50 49 49 48 48 46 46 46 46 47 46 46 47 47 47 46 46 46 45 46 45 46 46 46 46 46
55 53 53 53 53 53 53 52 51 51 52 52 50 50 50 49 49 49 48 48 48 47 46 46 47 47 47 46 45 45 46 46 45 45 45 45 45 45 47 47 46 46
54 53 53 53 53 52 52 52 52 51 51 51 52 51 49 50 49 48 50 48 47 47 47 47 46 46 46 46 45 45 45 44 44 45 45 45 46 46 46 46 46 47
54 53 53 52 52 52 52 52 52 51 51 51 51 51 50 49 48 48 48 48 47 47 47 47 46 45 45 44 44 43 44 44 44 44 45 45 45 46 46 46 46 47
53 53 53 53 53 53 52 51 51 51 52 51 51 50 50 49 48 48 47 48 47 48 47 47 45 44 42 42 43 43 45 44 44 45 45 44 45 45 45 46 46 46
53 52 52 52 52 52 51 52 51 52 52 51 51 50 50 49 49 48 46 46 46 46 45 45 44 44 44 43 43 44 43 44 44 44 43 43 44 44 44 45 45 45
53 52 52 52 52 52 52 53 52 51 51 51 50 50 49 48 48 48 48 47 45 44 44 45 44 44 47 45 45 46 44 43 43 43 43 43 43 43 43 44 44 44
51 51 51 51 52 52 52 51 50 50 51 50 49 49 48 48 48 47 46 46 45 45 44 44 44 45 44 41 42 42 43 42 42 42 42 42 42 42 42 43 44 44
51 51 50 51 51 51 50 50 49 49 48 48 47 47 47 47 47 46 45 44 44 44 44 44 44 45 41 41 41 41 42 44 42 41 42 41 41 41 42 42 42 42
50 50 50 49 49 50 50 50 49 49 49 48 47 47 46 46 46 45 44 44 44 44 43 44 44 43 41 41 40 40 40 41 41 41 41 41 41 41 41 41 41 42
50 50 49 49 49 49 49 49 49 48 46 46 46 45 45 44 44 44 44 43 44 44 44 43 43 42 40 40 40 40 39 40 41 40 40 40 40 40 41 41 41 41
49 49 48 48 49 49 49 49 49 47 47 46 45 45 44 43 43 44 44 44 44 43 42 42 42 42 40 40 39 40 39 40 40 39 39 39 40 40 40 41 41 41
48 48 48 48 48 49 48 48 47 48 46 45 45 44 44 44 44 44 44 43 42 41 42 41 40 39 38 39 39 39 39 41 39 38 38 39 39 40 40 41 41 41
48 48 48 48 49 48 48 48 47 46 44 44 43 43 42 43 43 43 44 42 40 40 41 40 39 39 38 39 39 39 39 39 38 38 38 37 38 39 40 40 40 41
47 48 48 49 48 48 48 46 45 45 43 44 43 42 43 44 43 41 40 41 41 39 40 40 39 38 39 39 39 39 40 39 38 37 37 37 37 38 39 39 40 41
47 48 49 49 48 48 46 44 43 43 42 43 42 43 43 41 41 39 37 38 40 40 42 40 37 39 40 38 38 38 40 39 38 37 36 36 37 38 38 38 39 40
47 48 49 49 48 46 45 43 43 42 42 43 42 42 41 39 39 39 39 38 38 39 40 40 38 37 39 38 39 39 39 40 39 37 36 37 38 38 38 39 39 40

ECMWFNIL_sfc_temp_015.txt.gz
Temp
67 67 67 67 67 68 66 65 66 66 67 67 67 67 67 67 66 66 65 65 64 64 64 63 63 63 63 63 63 63 63 61 61 62 61 61 60 59 59 59 58 59
65 66 67 67 67 66 66 66 65 66 66 66 68 67 67 66 65 65 64 64 64 64 64 64 64 64 64 64 63 62 62 61 60 62 60 60 60 59 58 58 58 59
65 65 65 65 65 65 65 65 65 66 66 66 66 66 66 66 65 65 65 65 64 64 64 64 64 64 64 63 63 62 62 61 60 61 61 60 60 59 59 59 59 58
64 65 65 65 66 66 65 64 64 65 65 64 65 65 65 64 65 64 64 64 64 63 63 63 63 63 64 63 63 62 61 61 61 61 60 60 60 60 59 59 59 59
64 64 65 66 66 66 65 64 64 65 65 65 65 64 65 64 64 64 64 64 64 64 63 63 63 63 63 63 63 62 61 61 60 61 60 59 59 59 58 59 58 57
65 66 66 66 66 65 64 64 65 65 65 64 64 65 65 65 65 64 64 64 64 64 63 63 63 62 63 63 62 62 61 61 60 60 60 59 59 59 59 58 57 57
64 64 64 65 65 65 64 65 65 65 65 66 66 64 65 64 65 65 65 65 64 64 64 63 62 61 62 62 62 60 61 60 60 60 59 59 59 58 58 58 58 57
64 65 65 65 64 64 64 65 65 64 65 65 64 65 65 65 66 65 65 65 65 65 64 63 63 62 62 62 61 59 59 59 59 59 58 58 57 57 57 57 57 57
65 65 65 64 63 64 64 65 65 65 65 64 64 65 65 66 66 65 65 65 65 64 64 63 63 62 62 62 61 60 59 58 58 58 57 57 56 57 58 58 56 56
65 66 65 64 63 64 64 64 65 65 64 64 65 65 64 64 65 65 65 65 63 63 63 63 62 61 61 62 62 61 60 59 58 58 57 57 56 57 57 57 56 55
64 65 65 64 63 64 64 64 64 65 64 65 65 64 65 64 64 65 64 64 62 63 63 63 62 62 62 61 60 60 59 58 58 58 57 57 56 56 55 56 56 56
64 65 65 64 64 64 64 64 64 64 64 64 65 65 64 63 63 63 64 64 64 64 64 63 63 63 62 62 60 59 58 58 58 57 57 57 57 56 57 56 55 56
65 65 65 64 64 64 64 64 64 64 64 64 64 64 63 62 63 63 64 65 65 64 63 63 62 62 61 60 59 59 58 58 57 57 56 56 56 56 56 56 56 56
64 65 65 65 64 64 64 64 64 63 63 64 64 63 63 63 62 63 63 65 64 63 63 63 62 61 61 60 59 58 58 57 57 56 56 55 55 55 55 55 55 55
63 64 64 64 64 64 63 63 63 63 63 63 60 59 61 60 60 62 62 63 63 62 62 61 60 59 59 59 58 58 58 57 56 56 55 54 54 55 55 55 55 55
63 63 63 63 63 63 63 63 63 62 62 60 59 59 60 58 57 58 59 60 60 61 60 59 58 58 52 48 51 58 57 56 55 55 55 54 53 53 54 54 54 54
61 62 63 62 63 63 63 63 63 60 60 59 58 58 55 54 54 55 56 56 58 59 58 57 57 56 44 42 43 46 54 55 55 54 54 53 53 53 52 53 54 55
60 61 61 62 62 62 62 63 61 60 59 59 58 57 57 56 55 56 56 56 57 58 57 57 57 47 41 41 41 41 47 55 54 54 53 53 53 53 53 53 52 52
60 60 61 61 62 62 62 61 60 59 59 58 57 58 57 56 57 56 56 56 56 56 56 56 56 43 41 41 40 40 40 48 55 53 53 52 52 52 52 51 51 51
59 60 60 60 61 61 60 60 59 59 58 58 57 56 56 57 57 55 56 56 57 56 55 56 55 44 41 41 40 39 38 44 54 52 52 52 52 52 51 51 51 50
59 59 59 59 60 60 59 59 58 58 57 58 57 55 56 56 55 55 55 56 56 56 55 54 53 42 40 40 39 39 37 42 53 51 51 52 51 51 51 50 50 50
58 58 58 59 59 58 58 58 57 56 55 55 55 55 55 55 54 55 54 55 55 54 53 52 51 40 40 39 39 38 38 50 52 51 51 51 51 51 51 51 51 50
58 57 57 58 58 58 57 56 56 56 55 53 52 52 51 53 53 54 55 54 52 52 51 50 51 43 39 39 39 37 43 53 51 52 52 50 50 50 51 51 50 51
58 58 57 57 58 58 58 57 57 56 54 52 51 50 50 51 51 51 52 51 49 50 51 51 52 46 38 39 39 38 44 51 52 52 50 50 50 50 50 50 50 45
58 58 57 57 57 58 58 56 54 53 51 50 48 48 47 48 49 47 47 49 50 50 48 49 51 48 39 39 38 38 45 52 52 52 50 49 49 49 50 50 50 48
57 57 57 57 58 58 57 56 53 50 48 48 48 48 46 45 44 44 45 48 49 48 46 48 48 50 46 37 39 38 39 50 51 50 49 48 49 48 47 49 49 49

ECMWFNIL_sfc_temp_018.txt.gz
Temp
76 76 76 76 76 76 75 74 75 74 74 75 74 74 73 73 72 72 72 71 71 70 70 70 70 69 69 69 70 71 70 68 68 68 67 67 66 66 65 65 65 67
74 75 76 76 77 77 76 75 74 75 74 74 75 75 74 73 72 72 71 70 71 70 70 70 69 69 69 70 69 69 68 67 66 68 66 65 66 65 64 64 65 66
74 74 74 74 75 75 74 74 75 75 75 75 75 75 74 73 71 72 71 71 71 70 70 70 70 70 70 69 69 69 68 67 66 67 67 66 66 66 65 65 65 64
74 74 74 74 75 74 74 74 74 74 75 74 74 74 74 72 72 71 71 71 71 70 70 70 70 70 70 70 69 69 68 68 68 67 66 66 66 66 65 66 65 65
73 74 74 75 75 75 74 74 73 74 74 74 74 74 74 72 71 72 71 70 71 70 70 69 70 69 69 69 69 68 67 67 66 67 67 65 65 65 65 65 64 63
74 76 76 75 75 74 74 74 74 74 74 73 73 75 74 73 73 72 71 71 71 70 69 70 70 69 70 69 68 68 68 68 67 66 66 65 65 66 66 64 63 63
73 73 73 75 74 74 73 74 74 74 75 74 75 74 74 73 73 73 73 72 72 71 71 70 69 69 69 69 69 67 68 67 67 67 66 66 65 63 64 64 64 64
72 73 74 74 73 73 73 74 74 74 74 75 74 74 75 74 74 73 73 72 72 72 71 71 70 70 69 69 69 66 66 66 66 66 66 65 64 65 64 63 62 63
73 73 74 73 72 72 73 73 74 74 75 73 74 74 75 75 74 74 73 74 73 72 72 71 71 70 69 68 67 67 66 65 65 65 64 63 63 63 66 65 63 62
72 73 73 72 72 72 72 73 74 74 74 73 74 75 74 74 75 75 74 73 72 72 72 71 71 69 69 69 68 67 66 65 66 65 64 64 64 64 65 64 63 62
70 71 70 70 70 72 72 73 73 73 74 74 74 74 75 74 74 75 74 74 71 72 72 71 71 70 69 68 67 67 67 65 65 65 64 64 63 63 60 63 62 62
68 69 69 70 69 71 72 72 72 73 73 73 74 74 74 74 74 74 74 74 74 73 73 72 72 70 70 69 69 67 66 65 65 64 64 64 63 63 64 63 61 62
69 69 70 70 71 70 71 72 72 72 73 74 74 73 74 73 73 73 72 73 73 72 72 71 71 70 69 69 68 67 66 65 64 64 63 63 63 63 63 62 62 62
69 70 70 70 71 72 72 72 72 73 73 73 74 72 72 74 73 73 72 72 72 72 72 71 71 70 70 68 68 67 65 64 64 63 63 62 61 62 62 62 61 61
68 68 68 70 71 71 71 72 72 72 72 72 72 72 71 73 73 73 70 71 72 71 71 70 69 68 68 66 64 65 65 64 64 64 62 62 62 62 61 61 62 61
69 69 70 71 70 71 71 71 71 71 71 71 71 72 73 72 73 71 70 68 67 68 68 67 67 66 58 53 56 65 65 65 63 62 62 62 61 60 60 61 60 61
70 69 69 70 71 71 71 71 72 71 71 71 70 71 70 70 69 69 69 68 68 66 66 65 63 61 46 46 47 52 62 63 63 62 62 61 60 60 60 60 60 61
69 70 70 69 69 70 71 72 71 71 70 70 70 69 69 70 68 69 68 67 66 66 65 62 63 49 44 44 46 47 52 62 62 62 60 61 60 60 60 60 59 59
70 69 69 69 70 70 70 69 70 69 69 69 68 68 68 68 68 66 66 67 67 66 64 64 61 44 44 43 43 43 44 53 63 62 61 60 60 59 59 59 59 58
69 69 68 69 69 69 69 69 68 68 68 68 68 68 68 68 67 66 66 66 65 65 64 63 58 44 42 42 42 42 40 47 62 59 59 60 59 59 58 58 58 58
68 68 67 68 68 68 68 68 67 67 67 68 68 68 67 67 66 66 66 65 64 63 62 59 54 41 42 41 41 41 39 44 60 57 58 59 59 59 58 58 58 57
66 66 66 67 67 68 67 67 67 67 66 67 67 67 68 68 67 66 64 63 62 62 59 55 50 40 41 41 40 40 40 54 58 57 58 59 59 59 59 59 59 58
66 65 65 66 66 66 67 66 66 66 66 67 66 66 66 65 65 65 64 62 60 58 55 52 50 43 40 40 40 39 44 58 58 58 59 58 58 58 58 59 58 59
66 66 65 65 66 65 66 66 66 67 66 67 65 65 64 64 64 62 62 60 57 55 56 54 53 45 40 40 40 40 46 57 58 58 58 58 58 58 59 59 58 50
65 65 65 65 65 65 65 65 65 66 66 67 66 66 64 64 63 60 58 56 55 54 51 52 51 45 40 40 40 39 46 58 58 58 57 57 58 58 58 58 58 55
64 64 64 64 64 65 65 65 66 66 65 64 64 64 63 61 58 57 54 53 53 53 52 53 51 49 45 39 40 39 40 53 57 56 55 55 56 56 55 56 57 58

ECMWFNIL_sfc_temp_024.txt.gz
Temp
71 71 70 70 70 70 70 69 69 69 69 69 68 68 67 67 68 67 67 67 67 66 67 66 66 66 68 67 66 67 66 64 64 64 64 63 62 62 62 62 61 61
71 71 71 71 71 71 70 71 70 70 70 70 70 68 69 68 67 68 67 67 67 66 67 66 67 67 67 66 67 65 64 64 63 67 63 63 62 62 62 61 61 62
71 71 70 70 70 70 70 71 72 70 70 72 70 70 69 68 67 67 67 66 66 66 66 66 66 67 67 65 66 65 64 64 63 65 63 63 63 62 63 62 62 62
72 72 72 71 71 71 71 70 71 70 70 70 71 70 70 69 67 67 67 68 66 66 65 66 65 66 67 66 66 65 64 64 64 63 62 63 63 63 61 61 61 61
71 71 72 72 72 72 71 71 70 71 70 70 71 70 70 68 67 67 66 66 66 66 66 65 65 65 66 65 66 64 64 64 63 64 63 62 62 62 63 62 61 61
72 74 73 73 71 71 71 71 71 72 71 70 70 71 70 70 68 68 67 66 67 67 66 66 66 65 65 65 64 64 64 64 63 64 63 62 62 62 65 62 61 61
72 72 72 72 72 71 70 70 69 70 70 71 70 69 70 69 69 69 70 68 68 68 68 66 65 65 65 64 64 63 63 63 64 64 63 62 61 62 63 63 62 63
71 72 71 70 69 69 67 66 66 68 69 70 70 69 70 70 70 68 68 69 68 69 68 68 67 66 65 64 64 63 63 65 64 64 63 63 61 61 61 63 61 61
69 68 69 68 67 67 67 65 64 64 68 69 68 69 71 69 69 69 69 69 69 68 69 68 68 67 65 65 64 64 64 63 63 62 62 61 60 61 63 62 60 60
68 67 68 67 67 66 65 62 62 62 65 67 69 70 69 69 70 70 69 69 69 69 70 69 68 67 66 66 66 65 64 64 63 62 62 62 62 62 63 62 60 59
67 68 67 67 66 65 65 65 64 63 64 67 68 68 68 68 67 68 68 69 68 69 70 70 69 68 67 66 65 64 65 64 63 63 62 62 62 62 63 61 60 59
66 66 67 66 65 65 65 64 63 64 64 65 67 67 66 66 64 65 67 69 70 70 70 70 70 70 69 68 68 66 64 63 63 62 62 63 62 62 62 60 60 59
67 67 67 67 67 67 66 66 65 63 63 64 65 63 62 63 64 65 66 67 69 70 70 69 69 69 69 68 68 68 65 64 63 62 62 62 62 62 62 61 60 61
67 67 67 68 67 67 67 67 66 65 65 65 65 64 64 65 66 66 67 69 69 70 68 66 65 65 67 68 69 67 65 64 63 62 62 61 60 61 61 60 60 60
67 68 68 67 68 68 67 66 66 66 66 66 65 65 65 65 64 63 60 60 61 60 64 65 62 61 61 61 63 66 65 64 63 63 61 60 60 60 60 59 59 59
69 68 68 69 69 68 69 69 68 67 67 66 65 65 64 63 63 62 62 61 61 62 62 61 61 62 57 53 52 64 65 66 63 62 61 60 59 58 58 58 59 58
68 68 68 68 69 69 68 68 68 68 68 67 65 64 63 63 63 64 64 63 61 59 61 61 61 61 52 49 48 54 64 62 61 60 61 60 59 57 57 57 57 59
68 69 68 68 69 68 68 69 68 68 67 67 67 67 67 67 66 66 66 65 64 64 62 60 61 55 50 48 47 50 55 62 61 61 61 60 59 60 59 57 57 57
68 68 68 68 68 68 67 67 66 66 66 66 65 66 66 66 65 65 65 65 65 65 64 62 62 49 47 47 46 47 51 57 62 61 60 59 60 60 60 59 58 57
67 67 67 67 66 66 66 65 65 64 64 65 65 65 64 64 64 64 64 64 64 64 63 63 61 48 46 47 46 47 47 53 61 60 60 60 60 60 59 59 57 57
68 67 66 66 66 65 64 63 63 62 64 64 64 63 62 63 63 63 63 64 63 64 63 62 57 45 44 45 46 46 46 52 60 59 59 58 59 58 58 58 58 57
67 66 65 65 65 64 64 63 63 63 62 63 63 63 63 63 63 63 63 62 64 62 62 57 53 42 43 44 45 45 48 56 57 56 56 56 56 57 57 58 57 57
67 66 65 64 64 63 63 62 62 62 63 63 62 62 62 62 62 62 63 62 62 62 59 53 51 43 42 44 44 46 49 55 55 55 55 54 55 57 57 57 57 57
66 66 65 64 63 63 62 62 63 62 62 63 61 61 61 62 62 63 62 63 62 63 56 52 49 44 41 43 45 47 50 55 54 54 53 54 54 55 55 56 58 56
66 65 64 64 63 62 62 61 61 61 62 62 62 62 61 62 63 61 62 60 56 54 51 51 47 44 41 42 42 43 50 55 55 54 53 52 54 54 55 55 56 54
64 63 63 63 63 62 61 61 61 61 60 61 60 63 63 62 62 62 57 53 54 53 51 50 47 46 44 41 41 40 41 51 54 53 53 52 53 53 53 54 54 53

ECMWFNIL_sfc_temp_027.txt.gz
Temp
64 64 63 63 62 62 62 62 61 62 61 61 60 60 60 60 59 58 58 59 58 57 58 57 57 58 61 59 58 60 58 57 57 58 57 57 55 56 58 57 56 55
63 64 64 63 62 63 62 63 62 62 61 61 61 60 61 61 59 59 59 59 58 58 57 58 58 58 57 58 58 58 56 56 57 60 57 56 55 54 55 55 55 55
62 63 64 63 63 62 62 63 63 62 62 62 62 61 61 61 60 59 60 59 59 58 58 57 58 57 58 57 57 57 56 55 55 56 56 55 55 54 54 54 54 54
62 63 63 62 63 64 62 63 62 63 62 62 62 62 63 62 61 60 60 62 58 58 57 57 57 58 57 57 56 57 55 56 56 55 55 54 55 54 55 54 54 54
63 63 63 62 62 64 63 63 63 62 63 63 62 62 62 61 60 60 60 59 58 57 57 57 58 57 57 57 56 57 55 56 56 55 54 54 55 55 56 55 54 54
63 64 64 64 62 63 63 63 64 63 63 62 62 62 62 62 61 61 60 59 58 58 57 57 57 58 56 57 55 57 57 58 56 55 54 54 56 56 59 54 54 53
63 63 63 64 63 62 62 61 61 62 62 62 62 62 62 61 61 61 61 61 59 59 59 58 57 56 56 56 55 56 55 55 56 55 55 54 54 55 57 55 55 54
63 62 62 63 62 62 61 60 59 60 60 61 61 61 63 62 62 62 61 61 61 59 59 59 59 58 56 56 56 55 55 57 56 56 54 54 54 54 56 57 53 53
62 61 62 61 61 60 61 61 59 58 59 61 61 62 62 62 63 62 62 61 61 61 60 60 60 59 57 57 57 55 56 55 56 54 53 53 53 54 54 55 55 54
60 60 61 61 61 60 60 59 59 58 59 59 61 62 63 62 63 62 61 60 61 61 61 60 60 60 59 59 59 57 57 56 56 55 55 54 55 55 55 54 53 53
59 59 59 60 60 60 58 58 58 58 59 60 61 61 62 62 62 61 61 61 60 60 60 60 60 60 60 60 60 59 58 57 57 57 56 55 56 56 57 55 54 54
59 59 59 59 59 59 58 57 56 57 58 58 60 61 61 62 61 61 61 59 59 59 60 61 61 60 60 61 61 60 59 58 58 58 57 56 56 56 55 55 54 54
59 59 58 58 58 59 59 58 57 57 58 58 57 59 58 58 59 60 60 61 61 61 60 60 60 60 58 59 60 61 60 59 58 58 58 56 56 56 55 55 54 54
58 58 58 59 59 60 60 59 58 57 58 57 58 57 57 57 58 58 57 59 60 60 61 59 59 58 59 58 60 60 59 59 58 58 58 56 56 55 55 55 55 54
56 57 56 56 58 58 58 58 58 58 59 58 57 58 59 58 58 58 58 58 57 58 57 57 59 59 58 59 58 59 59 58 58 59 58 57 56 55 54 55 54 54
56 56 57 56 56 56 57 58 57 57 58 58 58 59 58 58 57 57 57 56 57 57 57 57 57 58 57 54 54 59 59 60 58 58 58 56 55 55 54 54 54 54
55 55 55 57 56 55 55 57 58 58 57 57 58 57 58 58 57 57 57 57 58 57 57 58 58 59 50 47 48 50 58 57 58 57 57 57 56 55 54 54 53 55
55 56 58 57 56 56 56 57 56 54 55 57 57 57 57 55 56 57 57 57 57 57 56 56 56 54 47 46 46 46 49 57 57 57 57 56 57 56 55 54 54 54
55 54 54 54 56 56 56 55 54 55 54 54 55 53 54 55 56 56 56 57 57 56 56 56 55 51 47 46 46 45 44 49 57 58 57 56 57 57 56 55 54 53
56 55 55 54 55 55 55 56 56 57 55 54 55 53 53 54 53 53 54 53 55 56 56 57 56 51 46 45 46 45 44 47 56 57 56 56 57 57 56 55 54 54
55 55 53 54 55 55 54 55 55 54 55 54 55 56 57 55 53 53 54 55 54 54 54 54 57 50 45 45 44 43 43 48 54 55 54 54 55 55 55 53 53 54
55 51 51 52 54 54 53 53 52 52 54 51 53 52 52 53 53 52 51 52 54 52 54 51 53 47 44 44 44 42 45 53 53 53 52 51 52 52 52 52 53 53
55 52 52 52 52 53 54 53 52 51 51 50 54 49 49 50 50 51 51 51 50 51 50 46 48 43 43 42 42 44 47 50 50 50 49 50 50 50 51 51 52 53
54 54 53 52 50 52 50 49 49 49 51 50 53 50 49 48 49 51 49 47 49 50 48 45 40 41 41 41 43 45 48 49 49 49 48 49 49 49 49 51 54 55
55 54 54 52 52 50 50 50 50 51 49 51 50 49 49 49 50 50 44 44 44 45 48 43 40 41 42 42 43 44 47 49 49 48 48 48 49 49 50 51 49 43
54 54 52 53 51 49 48 51 48 51 51 51 49 49 51 48 45 44 44 42 42 43 43 42 42 40 41 42 43 44 45 49 49 48 48 47 47 49 49 48 45 42

ECMWFNIL_sfc_temp_030.txt.gz
Temp
62 61 60 59 58 59 58 58 58 58 57 56 57 56 56 58 55 55 54 54 54 55 55 56 56 56 57 55 55 56 55 53 53 52 53 53 52 54 55 53 52 52
61 61 60 60 59 59 58 59 59 59 57 57 58 57 57 57 55 57 55 55 55 54 54 55 55 56 56 56 55 54 53 53 53 55 54 52 51 52 52 51 51 51
60 61 60 60 61 60 59 59 59 58 58 58 58 58 58 57 56 55 56 56 55 54 54 54 53 54 54 54 54 56 55 52 53 52 54 51 51 53 50 50 50 50
61 62 62 62 62 62 61 59 59 59 58 57 58 59 59 59 57 57 56 59 55 55 53 53 53 53 54 53 53 53 52 53 53 52 52 51 52 52 51 51 51 50
62 61 62 62 63 63 61 60 60 59 59 60 59 58 59 58 57 57 57 56 56 55 54 55 53 53 53 53 53 52 53 52 52 51 52 51 52 53 52 52 50 50
63 63 63 63 63 62 61 61 61 60 60 58 59 59 59 59 59 58 58 57 56 56 56 54 55 54 54 53 53 54 54 54 51 51 52 51 52 52 54 51 50 50
61 61 60 62 63 62 62 62 61 60 60 61 60 59 59 59 59 59 58 58 58 57 57 56 55 54 53 54 54 53 53 54 51 52 53 51 51 53 53 50 50 50
61 62 62 62 63 62 61 60 59 60 61 60 60 60 59 60 59 59 59 58 58 58 58 57 57 55 54 54 55 53 52 55 54 53 53 52 50 51 51 52 49 50
59 58 58 57 58 59 59 59 59 58 58 59 59 59 59 60 60 59 59 59 58 58 58 57 58 57 55 55 55 55 54 54 54 53 53 52 51 53 53 51 50 50
56 56 57 57 57 56 57 57 57 56 58 58 59 58 59 58 57 59 58 58 58 57 57 57 57 57 56 56 56 56 55 55 53 52 52 53 53 53 53 52 52 50
54 55 56 57 58 57 59 58 58 57 57 57 56 57 58 58 57 57 56 57 58 58 57 57 58 58 57 57 57 56 56 56 55 55 54 53 54 53 55 53 52 53
55 55 55 56 57 57 57 57 57 58 57 55 55 56 56 56 57 57 58 57 57 58 58 58 58 58 58 58 58 56 56 56 55 55 55 54 54 53 54 53 53 52
55 56 57 57 57 58 57 56 56 56 57 57 55 55 55 55 55 56 56 57 58 58 59 58 58 57 57 58 58 58 57 56 55 54 55 54 54 55 54 53 53 53
56 57 57 57 56 57 57 56 56 56 56 55 55 54 55 55 56 56 55 55 56 56 57 56 57 58 58 58 58 58 57 56 56 55 55 54 54 54 54 53 53 53
56 56 56 56 57 57 55 55 54 54 54 53 54 54 55 54 54 54 54 54 54 54 55 55 56 56 57 57 57 57 57 56 56 56 56 55 54 53 53 53 53 53
54 53 53 53 53 53 54 54 54 54 54 53 54 54 53 53 53 53 53 53 54 53 53 53 54 56 56 53 53 57 56 58 57 57 57 56 55 54 52 53 53 53
52 53 51 52 52 52 53 54 54 54 53 53 53 53 53 52 53 53 52 53 53 53 53 54 55 56 51 46 47 50 57 56 56 56 56 56 56 55 54 54 53 53
51 52 52 52 50 50 50 51 51 51 52 51 52 52 52 52 52 53 53 52 53 51 53 54 54 53 48 46 45 45 49 56 55 55 55 56 56 56 56 55 54 52
48 49 49 50 50 50 49 48 47 48 50 50 50 50 51 50 52 51 52 52 51 52 52 53 53 50 47 46 45 44 44 50 54 54 55 55 55 56 55 54 53 52
48 48 50 49 49 48 47 47 48 50 49 48 48 48 49 48 47 48 48 49 49 51 52 53 52 50 46 45 45 44 43 45 51 52 53 53 54 54 54 54 54 53
49 48 49 49 49 47 46 47 48 48 50 49 49 49 50 49 48 48 47 47 47 48 49 52 53 49 45 44 43 43 43 43 49 52 52 52 53 53 54 54 53 53
51 49 48 48 48 47 49 50 48 47 51 47 48 44 43 44 46 47 47 46 47 47 47 49 49 42 45 44 43 43 42 46 48 48 48 48 49 49 49 49 49 50
49 47 47 47 47 49 50 48 49 48 46 45 51 44 44 44 45 44 44 44 45 46 46 45 42 39 43 43 41 40 43 47 45 46 45 45 45 46 47 50 50 49
47 45 47 47 45 48 47 45 43 43 45 44 50 49 47 44 43 44 40 40 40 42 44 45 39 40 41 40 40 42 46 46 44 45 44 45 45 47 47 47 48 53
47 47 46 45 46 45 44 45 45 46 45 44 45 45 46 42 41 39 38 40 39 39 46 39 37 40 41 40 41 43 45 45 46 45 45 45 46 44 43 42 42 45
47 49 46 45 45 43 43 45 43 45 46 47 45 42 40 38 39 40 38 37 37 37 39 37 37 38 39 41 42 43 44 47 46 46 45 44 44 45 43 41 41 42

ECMWFNIL_sfc_temp_033.txt.gz
Temp
60 59 59 59 58 58 56 54 53 52 52 51 52 52 52 53 53 53 52 52 52 52 52 53 53 54 55 53 53 54 53 52 52 51 51 51 50 51 52 50 50 50
59 60 60 60 59 58 56 54 54 54 53 52 53 52 51 53 52 53 52 52 53 51 51 52 52 52 52 53 52 52 51 53 53 53 52 51 49 50 49 49 49 48
58 59 59 59 60 59 58 57 55 54 54 53 52 52 53 54 52 53 52 52 52 51 51 52 52 52 52 51 51 52 52 51 51 50 52 50 49 50 47 48 48 49
59 61 61 60 60 60 59 57 55 54 54 54 54 54 54 55 53 53 53 56 51 52 51 51 51 51 51 51 51 51 50 50 50 50 51 49 50 50 49 49 49 48
60 61 61 61 60 60 59 59 57 55 54 55 54 54 55 54 52 53 52 53 52 52 51 51 51 51 51 50 51 50 50 50 49 50 50 50 49 50 49 51 49 49
61 62 61 61 61 61 59 59 58 57 56 54 55 54 54 54 53 53 53 52 52 52 52 51 51 51 50 50 50 52 52 52 49 49 50 49 49 49 51 49 48 48
58 58 58 60 60 60 60 60 59 58 57 57 55 54 55 55 54 53 53 53 53 53 52 52 51 51 50 50 50 50 50 50 48 50 51 49 49 49 49 48 48 48
57 57 59 60 60 58 59 59 58 59 58 56 56 56 57 57 57 55 54 54 53 53 53 53 52 52 51 51 51 50 50 51 50 49 49 48 49 49 49 50 47 48
57 58 59 60 59 57 57 57 57 56 57 58 57 56 56 57 58 57 56 54 54 54 53 53 53 52 52 51 51 51 51 50 50 49 49 49 49 49 48 47 47 48
54 55 56 57 56 56 57 56 55 55 56 56 58 58 56 55 55 56 56 55 55 54 54 54 54 53 53 52 52 51 51 52 50 50 50 50 51 50 49 48 47 47
53 54 55 55 56 57 56 56 55 55 55 56 56 57 56 55 56 56 55 54 55 55 55 54 55 54 53 52 52 51 52 53 52 51 50 51 51 51 53 50 49 50
54 55 55 55 55 55 55 55 55 55 54 55 56 57 56 56 56 56 56 56 56 56 56 56 55 54 55 55 54 52 52 52 52 52 51 51 51 51 51 51 51 51
54 55 55 56 56 56 55 54 54 53 53 54 54 54 53 54 55 56 56 56 57 57 56 56 55 54 54 53 53 52 52 52 52 51 51 51 51 52 52 51 52 51
55 55 55 56 56 55 55 55 54 54 54 54 54 54 53 54 54 56 56 55 56 57 57 56 54 54 53 53 53 53 53 52 53 52 52 51 51 51 51 52 52 52
54 54 54 54 55 54 54 56 55 54 54 54 54 54 54 55 55 55 55 55 55 54 54 54 55 55 56 55 54 54 53 53 54 54 53 53 53 52 51 51 52 52
52 52 54 54 54 54 54 54 54 54 54 54 54 54 54 54 55 54 54 54 54 53 52 51 52 54 55 52 52 56 54 55 54 54 54 54 53 52 52 52 53 54
51 51 52 53 53 53 53 54 54 54 53 54 54 54 54 54 53 54 53 53 53 52 51 51 53 54 50 47 46 48 54 53 55 55 55 54 54 54 52 52 53 54
50 50 49 50 50 52 52 52 52 53 53 53 53 53 52 52 52 51 51 49 49 49 49 52 52 51 47 46 44 43 47 54 53 54 54 54 54 54 54 53 53 53
47 48 47 47 46 46 46 46 48 49 49 49 49 47 47 48 49 47 47 47 48 49 49 50 51 49 46 45 44 43 43 47 52 51 52 52 53 54 54 54 53 53
45 45 46 46 45 45 44 45 46 47 45 44 46 45 44 45 44 45 44 45 46 46 46 47 49 48 45 44 43 42 41 43 50 50 50 50 51 52 53 52 52 52
45 46 46 46 44 43 43 44 44 44 45 45 43 44 45 47 48 47 45 44 43 43 44 47 49 44 40 41 41 41 41 40 47 47 47 48 49 49 50 50 49 51
45 44 46 45 45 44 46 46 44 45 47 44 41 40 41 41 41 41 41 41 42 42 43 43 45 40 39 41 41 40 40 44 44 45 45 46 47 46 47 47 47 49
45 45 45 44 44 45 46 47 50 49 46 41 44 39 40 40 40 40 38 38 40 40 40 42 43 40 40 40 40 39 42 43 42 43 43 43 41 41 42 45 46 46
44 43 44 45 43 45 45 43 42 42 43 43 51 46 44 43 41 38 37 38 38 39 39 40 39 39 41 39 40 39 44 43 42 42 41 41 41 40 41 42 46 51
43 43 44 44 44 44 43 44 43 44 43 41 40 40 40 38 38 37 36 36 35 36 44 37 35 38 40 39 40 40 43 42 43 42 41 40 40 39 39 39 40 43
46 48 45 45 46 44 42 44 42 42 42 41 38 38 38 36 38 36 36 34 34 34 36 35 36 35 38 40 41 41 43 44 44 43 41 39 39 41 40 39 40 40

ECMWFNIL_sfc_temp_036.txt.gz
Temp
59 59 58 57 56 56 54 53 52 52 50 49 52 51 51 53 52 51 51 52 54 51 52 53 53 54 54 53 54 54 54 52 52 52 52 53 52 53 53 52 52 53
58 59 59 58 57 57 55 55 54 54 52 51 51 51 51 51 51 52 51 51 51 51 51 52 52 52 52 53 52 53 52 53 53 54 52 52 51 52 51 51 51 52
58 58 58 58 57 56 56 55 55 53 52 51 51 51 52 52 51 51 51 51 51 51 52 52 52 52 51 51 52 53 52 52 52 52 53 51 51 51 50 51 51 52
57 58 59 58 58 57 56 56 54 53 52 53 52 52 53 55 52 52 51 54 50 52 51 52 52 52 51 51 52 51 51 51 51 52 52 51 52 51 51 51 51 51
57 58 58 60 59 58 57 58 57 54 54 52 52 53 54 53 52 52 52 51 51 51 51 52 51 51 51 51 51 52 52 51 51 51 52 51 51 52 52 52 52 51
58 59 60 60 60 58 57 57 57 55 54 53 52 54 51 52 52 52 52 52 51 52 51 50 51 50 51 50 50 51 51 51 50 51 52 51 51 51 52 51 52 52
59 59 59 58 58 58 57 57 56 56 55 54 53 53 53 53 53 53 52 52 52 53 53 52 52 52 50 51 51 51 50 50 50 51 52 51 52 51 51 51 52 52
56 57 59 58 58 57 56 56 57 57 56 55 55 54 54 55 54 54 54 53 53 53 53 53 53 53 52 52 52 52 52 52 50 51 51 51 51 51 51 51 51 52
55 55 56 56 56 55 56 55 55 55 56 55 55 54 55 55 55 54 54 54 54 54 53 53 53 53 52 52 52 52 52 52 51 51 52 52 52 51 51 50 51 52
54 54 55 55 55 55 56 54 53 54 55 55 56 56 56 54 54 54 54 54 54 54 53 53 54 53 53 53 53 53 53 53 52 51 51 52 52 52 50 51 51 51
53 53 54 54 55 54 54 54 54 55 56 56 55 55 56 55 55 54 54 54 55 55 55 55 54 55 55 55 54 53 53 54 53 53 52 52 52 52 53 52 51 53
52 53 54 55 55 54 55 55 55 56 55 55 57 57 57 56 56 55 56 55 55 56 56 56 55 55 55 55 55 54 53 53 54 54 54 53 53 52 53 53 53 53
53 54 54 55 55 55 54 55 55 55 55 55 55 57 55 55 55 55 55 55 55 56 56 56 56 56 54 54 54 54 54 53 53 53 54 53 53 53 53 53 54 54
54 55 55 55 55 55 55 55 54 54 55 54 54 53 53 54 55 56 56 55 55 56 56 56 56 55 55 54 54 54 54 54 53 53 53 53 53 53 53 53 53 54
54 55 55 54 54 54 53 53 54 54 54 54 54 54 54 54 54 54 54 54 54 54 54 55 55 55 56 56 55 56 54 54 54 54 54 54 53 53 53 53 53 54
52 53 53 53 53 53 53 53 53 52 53 53 53 54 53 53 54 53 54 54 54 54 53 53 54 55 54 51 51 56 55 55 54 54 54 54 54 53 52 52 53 53
51 50 51 52 52 52 51 53 53 53 52 52 52 53 52 52 52 52 53 53 53 54 53 53 53 54 49 46 45 45 52 54 54 54 54 54 54 53 53 53 53 55
50 50 51 51 51 52 52 53 52 51 52 52 51 51 52 52 51 52 52 51 52 52 52 53 53 51 47 45 44 43 45 53 54 54 54 53 53 53 54 54 54 54
48 49 49 49 50 50 50 50 51 51 50 50 50 51 50 50 51 50 50 50 50 51 51 51 52 47 44 42 41 40 40 45 52 53 53 54 53 54 54 55 54 53
47 48 47 47 46 46 47 49 49 49 49 48 47 46 48 48 48 48 48 48 48 49 48 47 48 44 39 40 40 39 39 41 50 51 52 52 53 53 53 53 53 53
45 45 45 44 44 44 45 46 46 45 45 44 45 46 47 47 46 46 45 45 44 44 45 46 46 39 37 37 39 39 39 40 48 48 50 51 50 50 50 51 51 51
45 45 45 44 44 45 46 46 44 46 46 44 43 42 42 43 43 43 43 43 43 43 43 44 45 40 39 38 37 38 39 44 46 47 48 48 47 46 47 48 49 50
48 48 46 46 45 48 49 48 47 45 43 43 44 42 44 43 42 40 39 41 41 41 41 42 42 41 39 38 37 37 41 46 46 46 45 43 42 42 43 45 47 49
46 46 47 46 44 48 49 47 45 45 44 45 45 43 43 43 40 38 38 39 40 41 43 42 41 40 40 38 40 38 43 46 44 43 41 42 41 41 42 43 46 50
45 45 45 46 45 45 45 45 44 45 44 42 43 44 44 42 41 39 38 37 38 41 45 39 38 40 40 38 39 39 43 43 44 44 43 41 41 41 41 41 42 44
46 48 46 45 45 44 43 44 42 42 41 42 40 41 41 39 39 38 38 37 37 37 38 38 39 39 40 38 40 40 41 44 44 45 43 41 41 42 42 41 42 42

ECMWFNIL_sfc_temp_039.txt.gz
Temp
66 66 65 66 67 67 66 67 68 68 68 68 68 67 67 66 67 66 66 67 67 67 66 66 66 66 66 66 66 68 68 65 65 65 66 66 66 65 65 66 66 67
65 65 66 65 65 66 66 67 66 68 67 67 68 67 67 67 66 67 67 66 67 67 67 67 66 66 67 67 66 67 67 66 65 65 65 65 65 65 64 64 65 66
64 64 65 65 65 65 65 65 66 66 67 67 66 67 67 67 66 67 67 67 67 66 66 66 66 66 66 66 66 67 66 65 65 65 66 65 65 65 64 65 65 65
64 65 66 66 66 66 65 64 65 65 65 66 67 67 67 66 67 67 66 67 67 66 66 66 66 67 67 67 67 67 66 65 65 65 65 65 65 66 65 66 65 66
65 65 66 67 67 67 65 65 64 63 63 65 66 67 67 67 67 67 67 66 67 67 66 66 66 66 67 67 68 67 66 66 65 67 67 65 65 65 65 66 66 65
66 67 66 67 67 66 66 65 65 64 64 65 66 67 68 68 69 68 68 67 67 67 66 67 67 66 67 67 67 67 67 67 66 67 67 66 66 66 67 67 66 66
66 66 65 66 66 66 66 65 65 65 65 66 67 67 68 68 68 69 69 68 68 68 69 68 67 66 66 67 68 67 67 67 67 67 68 67 67 65 66 67 67 67
66 67 67 67 65 65 66 67 66 66 65 65 66 65 67 68 69 67 68 68 69 69 68 68 67 67 66 67 67 66 66 65 66 67 67 66 66 67 66 66 66 67
66 66 67 66 66 66 66 67 66 66 66 65 66 65 66 67 67 67 67 69 68 67 67 67 67 67 66 66 65 66 66 66 65 66 66 66 65 66 68 67 66 66
66 66 66 66 66 66 67 67 66 66 66 66 66 66 66 66 67 68 67 67 67 67 68 67 67 67 67 67 67 67 67 66 66 65 66 66 67 67 68 66 67 66
64 65 65 65 65 66 66 66 66 67 67 68 67 67 67 67 67 68 68 68 67 68 68 68 68 68 68 67 66 66 66 66 66 66 65 65 64 65 63 66 66 66
64 64 65 65 65 66 66 67 67 67 67 67 69 68 67 67 67 67 68 69 69 69 69 69 69 67 67 67 67 66 65 65 65 65 65 64 64 63 63 62 62 64
64 65 65 64 64 66 66 67 67 67 68 68 68 67 66 64 63 64 64 67 68 67 68 67 65 65 66 65 64 64 65 65 64 64 64 64 65 66 65 64 64 63
65 65 65 65 66 66 66 67 67 67 68 67 66 65 64 65 64 64 64 66 67 67 67 64 63 64 65 65 66 66 65 65 65 64 65 64 64 65 66 66 65 64
65 65 66 66 65 65 65 65 65 65 65 65 64 64 63 65 66 66 64 63 64 65 65 64 63 63 64 64 65 65 65 65 65 65 64 65 65 64 65 65 66 65
64 64 64 64 64 64 65 65 65 64 64 65 64 64 64 65 65 64 65 64 64 64 63 61 60 61 59 52 54 64 65 65 64 64 64 64 64 64 64 64 65 64
64 64 64 64 64 64 64 64 65 64 64 64 63 64 64 65 64 64 64 63 64 64 64 62 61 61 50 46 45 44 58 64 64 65 64 64 63 63 63 63 64 65
63 63 63 63 63 65 65 65 64 64 64 64 62 62 63 64 63 64 63 63 63 64 63 63 63 51 44 44 43 42 46 61 65 64 63 63 63 63 63 63 63 63
63 64 64 63 64 64 65 64 64 64 64 63 62 62 62 62 63 60 61 61 61 62 62 62 64 42 41 39 40 41 40 49 64 65 65 65 65 65 65 65 65 65
62 63 63 63 63 63 63 62 62 63 62 62 61 59 59 59 59 58 57 58 58 59 61 61 62 43 39 38 39 39 39 43 60 62 64 65 65 64 64 64 64 64
62 62 63 62 62 61 61 60 60 60 60 61 61 60 59 58 58 59 59 60 59 60 61 59 55 38 38 37 38 39 38 42 58 59 62 63 63 62 62 62 62 62
62 61 60 61 61 61 62 62 60 61 61 60 61 61 62 62 62 62 61 61 60 61 62 61 55 38 39 37 37 38 39 54 57 58 60 62 62 60 61 62 62 62
62 63 61 59 58 58 58 57 57 57 59 62 62 62 62 62 61 60 60 61 60 62 63 62 60 46 38 37 38 38 46 57 56 56 57 58 58 58 60 60 59 60
61 61 59 58 59 61 61 60 60 59 59 59 61 59 60 60 59 58 58 59 60 61 62 63 61 48 38 40 38 39 47 58 59 60 58 58 57 57 59 59 54 45
61 61 63 63 64 62 61 61 60 60 60 58 58 59 58 58 59 61 58 58 57 56 49 56 59 51 39 40 38 39 50 61 62 63 60 59 59 57 57 58 56 50
60 59 58 60 62 59 58 60 59 56 55 55 54 58 59 59 58 60 58 57 54 54 54 55 58 57 48 37 39 39 44 61 63 62 60 57 58 59 57 56 56 55

ECMWFNIL_sfc_temp_042.txt.gz
Temp
75 75 75 75 76 76 75 74 75 74 75 75 74 74 74 74 75 74 74 74 74 74 73 73 74 73 74 74 74 76 75 72 73 73 73 72 72 71 71 72 72 74
74 75 75 75 75 75 75 74 73 74 74 74 75 75 74 74 74 74 74 74 74 74 74 74 74 74 74 75 74 74 74 73 72 74 72 72 72 72 70 71 71 73
74 73 73 73 73 73 73 73 71 73 74 75 74 74 74 74 74 74 74 74 74 74 73 74 73 74 74 74 74 74 73 72 72 73 72 72 72 72 71 72 72 72
73 73 73 73 73 72 72 71 71 72 73 73 74 74 74 74 74 73 73 74 74 73 73 74 73 74 75 74 74 74 73 73 73 73 72 72 72 72 71 72 72 73
72 73 73 73 73 73 73 72 72 72 72 72 73 73 74 73 73 74 74 74 74 74 74 73 74 73 74 74 74 73 73 73 73 74 73 72 72 72 72 72 72 71
73 74 74 74 74 73 73 74 73 71 70 70 71 74 74 74 75 75 74 74 74 74 73 74 74 74 74 74 74 73 74 74 73 73 73 72 73 74 75 73 72 72
72 72 73 75 74 74 74 74 73 71 71 72 73 74 75 75 75 76 76 75 75 75 75 74 73 73 74 74 74 73 73 73 73 74 74 73 73 71 73 73 74 73
72 73 74 75 73 74 74 74 74 73 73 74 73 75 76 76 77 76 76 76 76 76 75 76 75 74 74 74 74 72 71 72 73 73 73 72 72 73 72 73 72 73
72 72 74 73 73 73 74 75 74 74 75 74 74 74 76 77 76 75 76 77 76 75 76 75 75 75 74 74 73 73 73 72 72 72 71 71 71 72 74 73 71 71
72 73 73 73 73 74 74 74 74 74 75 75 75 75 75 75 76 77 76 76 75 76 75 75 75 74 74 75 75 74 74 73 73 72 72 72 72 73 74 73 72 71
71 72 72 71 71 73 73 74 74 75 75 76 75 75 75 75 75 77 76 76 74 76 76 76 76 76 75 74 74 74 74 73 73 73 72 72 72 71 69 72 71 71
71 71 71 70 70 72 73 74 75 75 75 75 76 75 75 75 75 75 76 77 77 78 77 77 77 76 76 75 75 74 73 73 73 72 72 73 72 72 72 72 71 71
71 71 72 72 72 72 73 74 74 74 76 76 76 76 75 74 75 75 75 77 78 77 77 76 76 75 75 74 74 74 74 73 72 72 72 72 72 73 73 73 72 72
71 72 72 72 72 72 72 72 72 73 75 76 76 75 75 76 75 75 75 75 75 76 77 77 75 74 74 73 74 74 73 72 72 71 72 72 71 73 73 73 73 72
70 71 71 72 70 69 69 68 69 71 72 75 75 75 74 76 75 75 74 74 74 74 74 73 73 73 74 73 73 72 72 71 71 72 71 71 71 71 72 72 72 72
70 70 70 71 68 67 66 69 70 71 73 72 73 74 73 74 74 74 75 74 73 73 73 71 71 71 60 50 54 70 73 72 70 70 71 71 70 70 70 71 71 71
70 70 71 70 71 69 67 69 71 71 71 72 72 72 72 73 73 73 73 74 74 73 71 70 70 68 46 46 45 46 64 70 70 70 70 70 70 70 70 69 70 71
70 70 70 70 71 72 71 72 71 71 71 71 70 69 70 71 70 72 72 72 71 72 71 70 70 48 42 43 43 42 48 66 70 70 69 69 70 70 70 70 70 70
70 70 70 70 70 71 71 70 70 70 70 69 68 68 69 68 70 69 70 70 70 70 70 70 68 41 41 40 43 41 41 52 72 71 71 71 71 70 71 70 71 70
71 71 70 70 70 70 70 70 69 69 69 68 68 67 66 66 66 66 67 68 68 69 69 69 66 43 39 39 40 40 40 46 71 71 71 72 72 72 71 71 70 71
72 71 70 69 69 69 69 69 69 69 68 67 67 67 66 65 65 65 66 67 68 67 65 65 59 36 39 38 39 39 39 45 71 69 71 71 71 71 71 70 70 69
72 71 71 71 70 70 69 69 68 68 68 68 68 67 66 64 63 66 65 68 68 67 67 65 59 36 38 38 38 40 38 63 70 70 71 71 71 70 70 71 70 70
72 72 70 70 70 70 70 69 68 68 68 69 66 66 66 65 67 69 71 70 70 70 69 67 65 44 36 37 40 38 46 71 70 71 71 69 69 69 70 67 66 67
71 72 72 71 71 71 70 69 70 70 70 71 68 69 69 71 71 70 71 71 70 70 70 68 66 47 37 39 39 38 48 69 71 71 69 69 67 68 69 66 57 44
70 69 69 70 71 70 70 69 70 70 71 71 71 71 70 71 71 70 70 70 71 69 58 66 67 53 38 40 38 40 53 71 70 71 67 67 68 66 67 67 62 54
69 68 68 68 69 69 69 70 71 71 70 70 71 73 71 71 71 71 69 69 68 68 66 68 67 65 53 38 41 40 41 63 73 70 68 66 68 68 66 65 64 60

ECMWFNIL_sfc_temp_045.txt.gz
Temp
76 76 77 77 78 77 76 76 76 76 76 76 75 75 75 75 76 75 75 76 75 75 75 75 75 75 76 76 76 77 76 74 74 74 74 73 73 73 72 73 73 75
75 76 77 78 77 77 77 77 76 76 76 76 76 76 75 75 75 76 75 75 76 75 76 76 76 76 76 76 75 75 75 74 74 77 74 74 74 73 72 72 73 75
75 76 76 76 76 76 76 77 76 76 76 76 76 75 75 75 75 76 76 76 75 75 75 75 75 75 76 76 75 75 74 73 73 74 74 74 73 73 73 74 74 74
73 74 75 76 76 76 76 76 76 75 75 75 75 75 76 75 75 75 75 75 75 75 75 75 75 76 76 76 75 75 75 75 75 75 74 74 74 74 73 74 74 74
73 72 75 75 76 76 75 75 74 74 73 75 75 75 75 75 75 75 75 75 75 75 75 75 75 75 76 76 76 74 74 74 75 75 74 73 73 74 74 74 73 73
72 73 75 77 76 75 74 74 75 75 75 74 74 75 75 75 76 76 75 75 76 75 75 75 75 76 76 76 75 75 75 75 75 75 75 74 75 76 77 75 74 73
71 68 72 76 76 75 75 75 74 74 74 74 75 74 75 75 76 76 77 76 77 76 76 75 75 75 76 75 75 75 75 75 76 76 76 75 74 74 76 76 75 75
70 74 75 75 75 74 75 75 75 74 73 74 73 74 75 76 77 76 77 77 77 77 77 77 76 76 76 76 75 74 73 75 75 76 75 75 74 74 74 74 74 74
72 72 74 73 73 74 74 75 74 74 75 73 74 75 76 77 77 77 77 78 78 77 78 77 77 77 76 76 75 74 74 74 74 74 73 73 73 74 76 75 73 73
73 74 74 73 73 74 74 75 74 75 75 75 76 76 76 77 78 78 78 78 77 78 78 77 77 76 76 77 76 76 75 74 75 74 74 74 74 75 76 74 74 72
72 72 72 71 72 73 74 74 75 75 76 77 76 76 78 77 77 79 78 78 76 78 77 77 77 77 76 76 76 76 76 75 75 75 74 74 74 74 72 74 73 73
71 71 70 71 71 72 74 75 75 76 76 77 78 77 77 76 77 77 78 78 78 78 79 79 78 78 78 77 77 76 75 75 75 74 74 74 74 74 74 74 73 73
72 71 69 70 71 72 73 75 76 76 76 77 77 77 76 76 77 77 77 78 78 78 78 78 78 78 78 77 77 76 75 74 73 73 73 73 74 74 74 74 74 74
70 70 70 71 72 74 73 74 73 76 77 77 77 76 76 76 77 76 76 78 77 75 77 78 77 77 77 77 78 76 74 72 73 72 72 72 72 74 74 74 74 74
73 71 69 72 74 73 73 73 72 73 75 77 77 76 76 76 76 76 76 76 78 76 78 77 76 74 76 76 72 74 75 74 74 73 73 73 73 73 73 73 74 74
73 72 71 71 71 71 71 72 71 71 72 71 71 74 75 76 75 75 76 75 75 76 76 74 73 74 58 49 54 69 74 75 73 73 72 72 72 72 71 72 73 72
72 70 67 67 69 70 70 71 70 70 70 69 69 67 64 63 67 73 74 74 72 65 65 66 67 68 45 47 48 44 63 72 72 71 71 69 65 64 67 66 69 73
72 72 72 70 69 70 70 71 71 70 68 66 66 65 64 65 66 70 70 68 67 67 65 64 64 49 45 46 44 44 47 64 70 69 66 62 60 61 62 63 64 68
73 72 72 71 71 71 71 70 69 68 67 66 63 63 65 65 66 67 67 66 66 66 68 64 63 44 43 42 44 42 42 50 69 65 62 60 61 59 60 58 60 64
72 72 72 72 71 71 70 69 68 66 64 64 64 62 62 62 62 63 62 64 64 64 61 61 61 42 42 41 43 40 41 45 68 66 64 64 62 62 64 66 69 69
75 73 72 72 72 71 71 68 66 66 65 64 64 62 63 64 64 66 65 66 65 63 61 60 58 37 40 39 40 39 40 42 65 67 67 68 70 72 73 72 71 71
75 74 73 73 72 72 71 70 68 66 66 68 68 67 68 66 65 68 67 66 64 64 60 61 57 37 39 39 39 39 38 54 68 71 71 72 72 72 72 73 72 71
74 74 72 73 73 73 72 71 70 69 69 71 66 67 68 66 64 66 68 67 67 67 65 66 63 43 37 39 39 39 43 65 70 72 72 71 71 70 71 68 66 67
73 74 73 72 73 73 72 72 72 72 71 71 69 68 67 68 68 67 69 68 67 69 70 68 67 49 37 39 40 39 48 67 72 72 72 71 71 71 69 65 59 47
72 72 72 72 72 73 72 71 71 72 73 72 71 71 70 70 70 69 68 69 70 70 63 67 67 53 37 40 38 41 45 64 72 74 70 70 70 69 69 66 62 53
71 70 70 70 71 71 71 71 73 73 72 72 71 73 72 73 72 71 70 71 72 72 69 69 68 65 52 38 40 40 40 56 70 72 69 68 69 69 67 66 63 60

ECMWFNIL_sfc_temp_048.txt.gz
Temp
71 71 71 70 70 71 71 70 71 71 71 70 68 69 68 69 70 69 69 69 69 68 69 69 69 69 70 68 68 69 68 67 67 67 67 66 65 65 67 67 66 66
71 71 71 71 71 71 71 71 71 71 70 70 70 69 69 69 69 69 68 68 69 69 69 69 69 69 68 68 67 66 66 66 66 71 66 66 65 65 65 65 65 66
71 71 71 71 70 70 70 72 72 71 70 70 69 69 70 70 69 69 69 68 68 68 68 68 68 69 69 68 67 67 66 65 65 67 66 67 65 65 65 66 65 65
71 71 72 72 71 71 71 71 71 71 70 69 69 70 70 70 69 68 68 69 67 68 69 69 68 68 69 69 67 67 67 66 67 66 65 66 66 66 65 66 66 66
71 71 71 71 71 71 71 71 70 70 69 69 69 69 69 68 68 68 68 68 68 67 68 68 68 68 68 68 68 66 67 66 67 67 65 65 66 66 67 66 65 65
71 72 72 72 71 70 70 70 71 70 70 69 68 69 69 69 69 69 69 68 68 68 68 68 69 69 68 69 68 67 67 69 67 67 67 66 67 68 72 68 65 65
70 70 70 71 70 70 70 70 70 70 69 70 70 69 69 69 69 69 70 69 70 70 70 68 68 68 69 68 67 67 68 69 69 69 68 66 66 66 69 68 67 66
69 69 69 70 69 70 69 70 69 69 69 70 69 69 69 70 70 70 70 70 70 71 70 70 69 69 69 68 68 67 67 69 70 69 66 67 66 66 65 69 66 65
69 68 68 69 69 69 69 70 69 69 70 69 69 69 69 70 70 70 70 70 70 70 70 70 70 70 69 68 67 67 68 68 68 66 65 66 67 66 68 68 65 64
69 69 68 68 68 68 69 69 69 69 70 69 70 69 70 69 70 71 70 70 70 70 70 70 70 69 69 70 70 68 68 67 68 67 68 69 68 69 69 66 65 64
68 68 68 68 68 69 69 69 68 69 69 71 70 70 71 70 71 71 70 71 70 71 71 70 70 70 70 69 69 69 68 68 68 68 68 70 69 68 69 68 66 67
65 65 65 67 68 69 69 69 69 69 70 70 72 71 71 71 71 71 72 72 72 72 72 72 71 70 70 70 70 70 69 68 68 67 68 69 68 69 69 68 66 68
63 64 65 67 69 69 70 70 70 70 70 71 71 71 71 70 71 70 70 71 73 71 71 71 71 71 70 70 71 71 70 69 69 68 68 68 69 69 69 69 69 69
64 64 65 64 64 67 69 70 70 70 70 70 71 70 70 71 70 70 70 72 72 72 71 69 70 69 68 68 69 69 69 69 69 68 68 68 67 68 68 67 67 67
62 62 61 60 61 62 61 61 60 63 68 71 71 70 70 70 71 71 71 70 72 71 70 65 62 61 61 58 61 64 68 68 67 68 66 66 64 63 61 60 59 60
62 61 62 63 63 62 60 61 61 62 63 63 66 66 66 66 68 69 70 71 67 63 61 60 60 62 57 49 46 58 66 68 63 60 59 59 59 60 59 60 59 60
63 62 64 64 63 61 61 62 62 62 60 61 63 63 64 64 64 64 63 63 63 62 59 58 60 61 50 41 42 44 58 64 62 60 61 59 59 59 57 59 59 61
63 64 65 65 65 64 63 64 62 61 61 62 62 63 63 63 64 65 64 65 63 61 60 60 60 56 45 43 42 42 45 56 63 60 59 59 60 59 59 59 59 59
66 65 66 66 66 67 66 64 62 61 63 62 61 63 64 64 64 63 63 63 63 62 61 61 60 51 46 44 42 42 41 50 63 62 60 60 60 59 59 59 58 58
66 67 65 64 65 64 65 64 62 62 61 62 63 62 62 61 61 61 61 61 62 60 59 59 59 52 46 44 42 41 40 46 61 63 61 62 61 61 61 60 59 59
69 67 64 64 64 64 63 64 64 62 63 63 63 61 61 60 60 60 60 60 61 61 59 59 61 48 43 42 41 41 40 43 57 62 63 63 63 62 62 62 62 61
70 68 67 68 67 66 65 63 63 64 63 62 61 60 61 61 60 60 60 59 59 60 59 59 56 41 40 40 40 40 39 49 57 61 62 63 63 63 64 64 64 64
69 69 68 68 68 69 68 66 64 63 63 63 61 61 60 60 60 60 61 60 59 58 58 59 58 42 38 39 39 39 42 54 59 62 63 63 63 63 61 58 56 57
68 68 67 67 67 68 67 66 66 65 63 63 61 61 62 61 60 59 60 60 58 59 60 59 60 48 37 39 39 38 44 57 62 63 63 63 62 61 59 56 52 51
67 67 66 65 65 65 65 65 65 66 67 64 63 63 62 61 60 59 60 61 61 61 59 61 60 51 38 39 38 39 41 50 59 63 62 62 62 60 59 56 53 47
65 64 63 63 64 64 64 65 65 65 65 66 65 67 65 64 63 63 63 63 63 63 62 63 60 56 44 38 39 39 39 47 57 59 61 62 62 60 58 56 54 51

ECMWFNIL_sfc_temp_051.txt.gz
Temp
66 65 65 64 64 64 64 63 64 64 63 62 62 61 61 62 63 62 61 62 61 61 62 62 62 63 64 62 61 63 62 60 61 61 60 60 60 61 61 60 59 59
65 65 65 65 63 64 64 64 64 64 63 62 62 61 62 62 61 63 62 62 60 60 60 60 61 62 62 61 60 59 58 59 59 63 60 59 59 60 60 59 59 59
64 64 64 63 64 63 64 64 64 64 63 63 63 63 63 62 62 60 60 60 61 61 62 62 62 61 62 60 59 60 61 59 59 58 60 60 59 60 59 60 59 59
63 64 64 64 64 64 63 63 63 63 63 63 63 64 64 63 60 60 62 64 61 60 60 60 61 61 61 60 60 60 60 59 58 58 58 59 59 59 59 59 59 60
64 63 64 64 64 64 63 63 63 63 63 63 63 63 63 60 61 62 61 59 59 59 60 61 60 60 60 60 60 59 58 59 58 58 58 58 59 61 59 60 57 58
63 63 64 65 64 64 63 63 64 63 63 62 62 62 61 61 61 61 60 59 60 60 61 60 61 61 62 60 60 60 61 61 59 59 59 58 59 60 65 60 58 59
63 63 63 64 64 64 63 62 63 63 63 63 62 62 62 61 61 60 60 59 59 60 59 58 60 60 59 59 60 60 60 60 59 60 60 58 58 58 60 59 59 59
62 62 62 63 63 63 63 62 62 62 62 62 62 62 63 62 62 61 60 61 60 59 59 59 60 59 59 61 60 58 59 62 60 59 58 59 59 60 59 61 58 58
63 62 62 62 62 61 62 62 61 60 61 62 61 62 61 61 62 62 62 62 60 60 60 60 60 59 59 59 58 58 60 60 60 60 60 58 59 59 61 59 57 57
63 62 62 62 62 61 62 61 61 60 61 62 61 62 63 61 62 63 62 62 62 62 62 61 60 61 62 62 61 59 59 60 59 58 58 57 59 60 60 59 57 57
61 61 61 61 60 60 60 61 61 61 61 62 62 63 63 61 62 63 62 62 63 63 62 62 62 62 62 61 60 59 60 60 59 59 59 59 58 59 62 59 59 58
60 60 60 60 60 60 59 61 62 62 62 61 62 63 62 61 61 63 63 62 63 63 62 63 64 61 61 62 62 61 60 60 59 58 59 59 59 59 58 58 57 57
59 58 58 58 58 59 60 61 63 63 63 63 61 63 62 60 62 63 62 63 65 62 62 61 61 61 60 60 60 60 60 61 60 59 60 60 59 59 58 57 57 57
58 58 59 58 58 59 60 60 61 62 64 63 62 63 62 62 64 64 62 61 62 60 60 60 59 58 59 58 58 59 61 61 60 59 58 57 58 58 58 57 57 57
58 58 57 58 58 58 59 59 59 58 59 60 61 63 63 63 64 64 63 60 60 60 60 60 60 59 58 57 57 58 59 58 57 57 57 56 56 56 56 57 55 56
58 58 59 58 58 57 57 57 57 57 57 59 60 60 59 58 60 60 60 59 59 58 57 58 58 57 52 50 52 56 57 60 57 56 57 57 56 55 54 55 56 56
57 57 59 59 57 56 56 57 58 57 57 57 57 58 58 59 59 59 58 58 57 56 56 56 57 56 43 40 41 46 57 57 56 56 56 56 56 55 54 54 54 56
58 58 59 58 58 57 58 58 57 56 57 57 56 57 57 57 58 58 58 57 57 56 56 56 56 51 41 41 41 42 50 57 57 56 55 54 55 55 54 55 55 56
59 58 58 58 58 58 57 57 57 56 56 57 56 57 56 57 57 57 57 56 56 56 56 55 56 49 43 40 40 40 43 52 58 56 56 54 55 56 56 56 55 55
59 58 57 57 58 58 57 57 56 56 56 56 55 55 55 55 54 55 55 55 55 55 55 55 54 52 43 41 40 39 39 46 56 57 56 57 56 56 56 56 55 55
58 57 56 57 57 57 56 56 56 55 55 55 54 54 54 53 54 53 54 54 54 54 53 53 56 50 44 41 40 40 39 43 52 55 56 56 56 56 56 56 55 56
58 57 57 56 57 56 57 57 56 55 54 53 52 53 52 52 52 52 53 52 53 53 52 51 53 44 41 41 41 39 39 47 51 53 54 54 55 55 55 56 56 56
57 56 55 55 56 56 56 55 55 54 53 53 54 51 52 52 52 51 53 53 52 51 52 53 54 45 39 40 40 39 42 50 51 53 54 53 53 53 51 50 51 55
56 56 55 55 54 54 54 54 56 55 56 54 53 53 52 54 52 51 51 53 52 52 53 54 54 49 39 40 39 39 44 51 52 53 53 52 52 51 50 49 51 56
55 55 54 54 54 54 53 53 53 54 54 54 53 53 53 52 54 54 52 51 52 53 54 55 53 51 41 40 39 39 43 49 52 53 51 52 52 49 48 48 48 49
55 55 55 54 53 54 54 54 53 53 53 54 54 55 55 54 53 53 52 53 54 53 54 55 54 51 43 38 39 39 40 46 48 51 50 52 51 51 49 46 46 45

ECMWFNIL_sfc_temp_054.txt.gz
Temp
63 63 62 62 62 61 61 61 60 60 59 58 57 56 57 57 57 58 57 58 59 59 59 58 59 59 60 58 57 59 58 56 56 56 57 57 56 57 58 57 56 57
62 63 63 62 61 61 61 62 61 61 60 59 59 58 57 57 58 58 57 58 58 58 58 58 58 57 57 57 56 57 56 56 57 60 59 58 56 56 56 56 56 56
62 62 62 61 61 59 61 61 61 61 60 61 61 60 59 57 57 57 56 56 57 58 58 57 57 56 56 55 55 56 56 55 57 56 58 57 56 57 55 56 57 57
62 63 63 62 62 62 61 61 61 61 61 61 61 61 60 59 56 56 57 59 57 57 56 57 57 56 56 55 55 56 55 55 56 56 57 55 56 56 55 57 57 57
61 61 62 63 63 63 63 63 62 62 62 62 61 59 59 57 56 56 56 56 56 56 56 56 56 55 55 55 55 55 56 55 55 56 56 55 55 57 55 57 56 56
60 61 62 63 63 63 63 64 63 63 62 61 61 59 58 57 57 57 56 55 56 57 56 55 55 56 55 55 55 55 56 57 55 56 56 55 55 55 59 57 56 56
60 62 63 63 63 64 64 63 63 63 63 62 61 59 59 58 57 56 56 56 56 57 56 55 56 55 56 55 55 55 56 55 55 55 55 55 55 55 55 56 56 56
62 62 63 63 63 63 63 63 63 62 62 62 62 60 61 60 59 57 57 57 57 57 56 56 56 55 55 55 55 55 55 57 55 54 54 54 54 55 54 57 54 56
62 62 62 63 62 62 62 61 62 62 63 63 62 61 61 62 61 59 57 56 57 57 56 56 56 55 54 55 54 54 55 55 55 54 54 54 55 54 55 54 55 55
61 60 60 61 61 60 61 62 62 63 63 63 63 62 62 62 62 61 59 57 58 57 57 56 56 57 56 56 57 57 56 56 55 55 55 55 55 55 55 55 54 55
60 60 60 59 60 59 60 62 63 63 63 64 63 63 62 61 61 61 60 60 60 59 58 57 58 58 58 56 56 56 57 56 55 54 54 55 56 56 59 55 55 56
58 58 58 59 59 60 61 61 62 61 61 61 63 62 59 59 60 59 61 61 61 60 60 59 60 59 59 58 57 56 56 55 54 54 54 54 54 55 55 55 54 54
57 57 57 57 57 58 60 60 62 62 62 62 62 61 61 60 60 60 60 61 62 61 61 61 60 59 58 57 57 57 57 56 55 56 55 55 54 54 54 54 54 54
57 58 58 57 58 58 58 58 59 60 62 61 60 61 62 62 60 61 59 60 61 60 60 58 58 57 56 56 56 57 56 56 57 57 56 55 55 54 54 54 54 54
56 57 57 57 58 57 57 56 57 56 56 57 58 60 60 58 58 58 57 57 57 58 58 58 59 59 58 58 58 57 57 57 57 57 57 56 54 54 54 54 54 54
57 57 57 57 57 56 55 55 56 56 57 57 57 56 56 58 58 58 59 58 58 56 57 58 58 57 56 54 56 58 57 58 56 55 54 55 54 53 53 53 54 54
55 56 56 56 55 54 54 55 55 55 55 55 55 55 56 56 58 58 57 57 58 57 55 55 55 54 44 44 48 52 57 56 55 54 53 53 53 53 53 52 52 54
55 55 55 55 55 54 54 55 54 54 55 54 54 55 55 56 56 57 57 56 56 55 55 55 55 48 40 43 45 47 52 56 55 55 54 54 54 53 53 52 52 53
56 55 54 54 54 55 54 54 54 53 54 54 54 53 54 55 55 55 54 54 55 55 55 54 54 41 40 41 42 42 45 53 56 55 54 54 54 54 54 53 53 53
57 56 55 54 54 54 53 53 52 51 51 51 52 52 52 52 53 53 53 54 53 54 54 52 53 43 40 41 42 42 41 47 55 54 54 54 54 54 55 54 54 54
56 54 54 54 54 54 53 52 52 51 52 51 51 52 53 52 53 52 53 53 52 51 50 52 54 42 41 41 41 41 40 42 52 54 54 54 54 54 55 55 55 55
54 52 52 52 53 53 52 52 51 51 51 51 50 49 50 50 50 51 52 52 51 50 50 50 50 40 40 40 40 40 40 46 50 51 53 53 54 54 54 54 54 54
52 52 52 52 51 52 52 52 52 51 51 50 51 50 51 51 52 52 52 52 51 50 50 52 50 42 40 40 40 39 41 49 50 50 51 51 53 53 53 53 53 53
52 52 51 50 51 52 52 51 50 50 50 51 51 51 50 50 50 51 50 51 51 52 52 52 53 46 39 40 40 39 43 49 50 50 50 51 49 49 48 49 52 54
52 52 51 51 50 49 49 49 49 50 50 49 50 50 51 49 50 50 50 50 51 52 53 53 52 50 41 39 40 40 42 48 49 50 50 50 49 47 46 46 47 52
54 53 52 51 50 50 50 49 49 50 51 49 49 49 49 49 48 50 50 51 50 50 51 52 52 51 46 38 40 40 40 47 49 49 50 48 47 48 48 45 45 47